Location: Bonny Doon Airfield
(37.0704°N, 122.1252°W)
Time: 20:34:27
(UTC-08:00)

Vanguard 2 - Pass Details

Date: 19 December 2017
Orbit: 553 x 2939 km, 32.9° (Epoch: 21 January)

Event Time Altitude Azimuth Distance (km) Brightness Sun altitude
Rises 10:13:41 0° 203° (SSW) 6,692 12.9 24.0°
Reaches altitude 10° 10:20:03 10° 190° (S) 5,454 12.8 24.6°
Maximum altitude 10:30:15 21° 149° (SSE) 3,997 13.9 25.5°
Drops below altitude 10° 10:38:13 10° 106° (ESE) 4,169 11.9 26.1°
Sets 10:42:06 0° 91° (E) 4,773 11.9 26.4°
